CZ-6A DEB, 60679

Orbit data source: Space-Track

CZ-6A DEB, 60679 is space debris in LEO originally from a launch on Tue, 06 Aug 2024 UTC launched from the Taiyaun Space Center, China (TSC). Debris objects in space refer to the collection of defunct objects orbiting the Earth. Examples of debris include non-operational satellites, rocket bodies, and fragments generated from explosions, collisions, or faulty payload assembly.

Loading next visibility...
Identifier
60679, 2024-140CG
Orbit
LEO
Country
Flag of CNCN / PRC
Related business
Manufacturer
SAST
Mission
Spacecraft
Bus & Motor
Unknown
Mass
Unknown
Launch date (UTC)
2024-08-06 (2 years ago)
Launch vehicle
Unknown
Launch site
Taiyaun Space Center, China (TSC)
Object type
Payload
Rocket body
Debris
Shape & HBR
Unknown shape, 0.4 m
Radar Cross Section
Medium (>0.1 m² and <1 m²)

Expand to show TLE details & history
Last TLE update: 14 hours ago

TLE from 14 hours ago
0 CZ-6A DEB
1 60679U 24140CG  26171.38463836  .00000939  00000-0  29944-3 0  9999
2 60679  89.3020 296.7939 0049075 232.3596 127.3146 14.38399806 97698
Epoch: 2026-06-20T09:13Z
TLE epoch observation values (Epoch: 2026-06-20T09:13:52.754Z)
Latitude
-0.00009°
Longitude
-110.27594°
Altitude
788.23 km
Speed
7.448 km/s
True Right ascension
19h 47m 10s
True Declination
0° 00' 00"
Sunlit
Object was in full shadow at epoch
Visualization orbit readout
Latitude
Unknown
Longitude
Unknown
Altitude
Unknown
Speed
Unknown
Apparent Right ascension
Unknown
Apparent Declination
Unknown
Sunlit
N/A
Visualization observer readout
Local Sidereal Time
10:19:45
Azimuth
Unknown
Elevation
Unknown
Doppler factor
Unknown
Orbital elements
Apogee altitude
795.748 km
Perigee altitude
725.68 km
Semi-major axis
7,138.851 km
Eccentricity
0.00491
Inclination
89.302°
RAAN
296.7939°
Arg. of periapsis
232.3596°
True anomaly
127.76019°
Mean anomaly
127.3146°
Eccentric anomaly
127.53756°
Mean motion
3.59833 °/min
Orbital period
100.05 mins
BSTAR
0.00029944
Loading maneuver chart data...
Computing Atmospheric mass density...
Loading historical data...
Loading historical data...
Loading historical data...
Loading historical data...
Loading historical data...
Loading historical data...
Loading historical data...

Documentation

Showing up to 5 results
|